sat.trackr.live / text

‹ back to catalog

STARLINK-35262

NORAD 65847 · 2025-221AA

PAYLOAD ACTIVE UNKNOWN

§ Identity

Operator
Country
US
Launch date
2025-09-29
Launch site
AFWTR
Launch vehicle
Mass (kg)
RCS (m²)

Purposes: comms

External: N2YO · Heavens-Above · Gunter

§ Orbital elements

Epoch: 2026-09-20T07:04:30.312192Z

Period
93.85 min
Inclination
53.1566°
Eccentricity
0.0001242
Mean motion
15.34400360 rev/d
Perigee alt
461.9 km
Apogee alt
463.6 km
Semi-major
6,840.8 km
B*
2.4913e-4
RAAN
262.6284°
Arg perigee
92.3037°
Mean anomaly
267.8108°
Rev number
5,590

§ Raw data

STARLINK-352621 65847U 25221AA  26263.29479528  .00008050  00000+0  24913-3 0  99912 65847  53.1566 262.6284 0001242  92.3037 267.8108 15.34400360 55908

JSON: /api/v1/satellites/65847 · /tle

For live sub-satellite position, see the globe view (requires WebGL).

§ Visibility from observer

Set your observer location to see the next 7 days of passes ≥ 10°. The values pass through the URL so the page stays shareable.

No JS? Fill the form by hand. The geolocation button needs JavaScript.